IZ1BLA-10 Weather Reports


time (UTC)temp
C
wind
direction
speed
KPH
gust
KPH
rain 1hr
cm
rain 24hr
cm
rain mn
cm
humidity
%
barometer
mb
20260506204918 20 0.0 0.0 0.00 0.00 0.00 54 1008.2
20260506203918 18 0.0 0.0 0.00 0.00 0.00 58 1008.3
20260506202918 18 0.0 0.0 0.00 0.00 0.00 57 1008.2
20260506201919 18 0.0 0.0 0.00 0.00 0.00 57 1008.1
20260506200919 18 0.0 0.0 0.00 0.00 0.00 56 1007.9
20260506195918 18 0.0 0.0 0.00 0.00 0.00 58 1007.6
20260506194918 18 0.0 0.0 0.00 0.00 0.00 55 1007.2
20260506193919 18 0.0 0.0 0.00 0.00 0.00 56 1007.0
20260506192918 18 0.0 0.0 0.00 0.00 0.00 56 1006.9
20260506191918 19 0.0 0.0 0.00 0.00 0.00 55 1006.4
20260506190918 18 0.0 0.0 0.00 0.00 0.00 56 1006.3
20260506185918 18 0.0 0.0 0.00 0.00 0.00 59 1006.4
20260506184918 19 0.0 0.0 0.00 0.00 0.00 54 1005.8
20260506183919 20 0.0 0.0 0.00 0.00 0.00 53 1005.5
20260506182918 19 0.0 0.0 0.00 0.00 0.00 55 1005.5
20260506181918 19 0.0 0.0 0.00 0.00 0.00 55 1005.1
20260506180918 19 0.0 0.0 0.00 0.00 0.00 55 1004.9
20260506175920 18 0.0 0.0 0.00 0.00 0.00 56 1004.8
20260506174918 20 0.0 0.0 0.00 0.00 0.00 52 1004.3
20260506173918 19 0.0 0.0 0.00 0.00 0.00 54 1004.3
20260506172919 20 0.0 0.0 0.00 0.00 0.00 54 1004.1
20260506171918 20 0.0 0.0 0.00 0.00 0.00 53 1004.0
20260506170918 20 0.0 0.0 0.00 0.00 0.00 52 1003.9
20260506165918 20 0.0 0.0 0.00 0.00 0.00 52 1003.9
20260506164918 20 0.0 0.0 0.00 0.00 0.00 52 1004.0
20260506163918 21 0.0 0.0 0.00 0.00 0.00 49 1003.7
20260506162918 21 0.0 0.0 0.00 0.00 0.00 49 1003.5
20260506161918 20 0.0 0.0 0.00 0.00 0.00 49 1003.6
20260506160918 20 0.0 0.0 0.00 0.00 0.00 51 1003.7
20260506155918 20 0.0 0.0 0.00 0.00 0.00 51 1003.6
20260506154917 20 0.0 0.0 0.00 0.00 0.00 51 1003.4
20260506153918 21 0.0 0.0 0.00 0.00 0.00 53 1003.6
20260506152918 19 0.0 0.0 0.00 0.00 0.00 57 1003.8
20260506151918 19 0.0 0.0 0.00 0.00 0.00 56 1003.7
20260506150918 19 0.0 0.0 0.00 0.00 0.00 57 1003.8
20260506145918 19 0.0 0.0 0.00 0.00 0.00 57 1003.8
20260506144918 19 0.0 0.0 0.00 0.00 0.00 57 1003.9
20260506143917 20 0.0 0.0 0.00 0.00 0.00 55 1003.6
20260506142918 20 0.0 0.0 0.00 0.00 0.00 53 1003.5
20260506141918 20 0.0 0.0 0.00 0.00 0.00 53 1003.4
20260506140918 21 0.0 0.0 0.00 0.00 0.00 48 1003.3
20260506135918 22 0.0 0.0 0.00 0.00 0.00 41 1003.1
20260506134918 21 0.0 0.0 0.00 0.00 0.00 45 1003.3
20260506133918 21 0.0 0.0 0.00 0.00 0.00 46 1003.4
20260506132918 21 0.0 0.0 0.00 0.00 0.00 47 1003.5
20260506131917 20 0.0 0.0 0.00 0.00 0.00 48 1003.7
20260506130917 20 0.0 0.0 0.00 0.00 0.00 47 1003.6
20260506125918 21 0.0 0.0 0.00 0.00 0.00 42 1003.4
20260506124917 21 0.0 0.0 0.00 0.00 0.00 43 1003.4
20260506123917 22 0.0 0.0 0.00 0.00 0.00 44 1003.4
20260506122917 21 0.0 0.0 0.00 0.00 0.00 44 1003.7
20260506121917 21 0.0 0.0 0.00 0.00 0.00 46 1003.4
20260506120918 21 0.0 0.0 0.00 0.00 0.00 44 1003.5
20260506115918 20 0.0 0.0 0.00 0.00 0.00 48 1003.8
20260506114918 20 0.0 0.0 0.00 0.00 0.00 50 1004.0
20260506113917 20 0.0 0.0 0.00 0.00 0.00 50 1004.0
20260506112917 20 0.0 0.0 0.00 0.00 0.00 50 1004.1
20260506111917 20 0.0 0.0 0.00 0.00 0.00 51 1004.3
20260506110918 20 0.0 0.0 0.00 0.00 0.00 51 1004.4
20260506105918 20 0.0 0.0 0.00 0.00 0.00 51 1004.6
20260506104918 18 0.0 0.0 0.00 0.00 0.00 53 1005.0
20260506103918 18 0.0 0.0 0.00 0.00 0.00 54 1005.2
20260506102918 19 0.0 0.0 0.00 0.00 0.00 53 1005.0
20260506101917 18 0.0 0.0 0.00 0.00 0.00 52 1005.5
20260506100917 18 0.0 0.0 0.00 0.00 0.00 54 1005.6
20260506095917 17 0.0 0.0 0.00 0.00 0.00 55 1005.7
20260506094918 17 0.0 0.0 0.00 0.00 0.00 54 1005.7
20260506093920 17 0.0 0.0 0.00 0.00 0.00 55 1005.8
20260506092917 17 0.0 0.0 0.00 0.00 0.00 55 1006.0
20260506091917 17 0.0 0.0 0.00 0.00 0.00 57 1005.9
20260506090917 17 0.0 0.0 0.00 0.00 0.00 57 1006.0
20260506085917 16 0.0 0.0 0.00 0.00 0.00 57 1006.1
20260506084917 16 0.0 0.0 0.00 0.00 0.00 57 1006.0
20260506083917 16 0.0 0.0 0.00 0.00 0.00 58 1006.2
20260506082917 15 0.0 0.0 0.00 0.00 0.00 61 1006.4
20260506081917 15 0.0 0.0 0.00 0.00 0.00 61 1006.3
20260506080917 15 0.0 0.0 0.00 0.00 0.00 61 1006.5
20260506072917 13 0.0 0.0 0.00 0.00 0.00 67 1007.0
20260506071917 13 0.0 0.0 0.00 0.00 0.00 69 1007.1
20260506070917 12 0.0 0.0 0.00 0.00 0.00 71 1007.6
20260506061917 12 0.0 0.0 0.00 0.00 0.00 83 1008.1
20260506060917 10 0.0 0.0 0.00 0.00 0.00 92 1009.0
20260506050917 11 0.0 0.0 0.00 0.00 0.00 79 1008.5
20260506044917 11 0.0 0.0 0.00 0.00 0.00 83 1008.7
20260506043917 11 0.0 0.0 0.00 0.00 0.00 82 1008.9
20260506042917 11 0.0 0.0 0.00 0.00 0.00 82 1008.7
20260506041916 11 0.0 0.0 0.00 0.00 0.00 84 1008.9
20260506040917 11 0.0 0.0 0.00 0.00 0.00 84 1008.7
20260506035916 12 0.0 0.0 0.00 0.00 0.00 87 1009.0
20260506034916 11 0.0 0.0 0.00 0.00 0.00 92 1009.1
20260506033917 9 0.0 0.0 0.00 0.00 0.00 10 1010.1
20260506032916 10 0.0 0.0 0.00 0.00 0.00 95 1009.8
20260506031917 10 0.0 0.0 0.00 0.00 0.00 93 1009.6
20260506030917 10 0.0 0.0 0.00 0.00 0.00 95 1010.0
20260506025917 12 0.0 0.0 0.00 0.00 0.00 83 1009.2
20260506024916 10 0.0 0.0 0.00 0.00 0.00 91 1010.2
20260506023916 12 0.0 0.0 0.00 0.00 0.00 85 1009.6
20260506022916 12 0.0 0.0 0.00 0.00 0.00 82 1009.6
20260506021917 13 0.0 0.0 0.00 0.00 0.00 75 1009.1
20260506020917 13 0.0 0.0 0.00 0.00 0.00 78 1009.4
20260506015918 13 0.0 0.0 0.00 0.00 0.00 80 1009.6
20260506014917 12 0.0 0.0 0.00 0.00 0.00 88 1010.0
20260506013916 13 0.0 0.0 0.00 0.00 0.00 82 1009.6
20260506012916 13 0.0 0.0 0.00 0.00 0.00 83 1009.4
20260506011917 13 0.0 0.0 0.00 0.00 0.00 82 1009.8
20260506010916 14 0.0 0.0 0.00 0.00 0.00 74 1009.4
20260506005917 15 0.0 0.0 0.00 0.00 0.00 74 1009.5
20260506004916 14 0.0 0.0 0.00 0.00 0.00 76 1009.8
20260506003917 11 0.0 0.0 0.00 0.00 0.00 92 1011.2
20260506002916 14 0.0 0.0 0.00 0.00 0.00 76 1010.3
20260506001917 14 0.0 0.0 0.00 0.00 0.00 76 1010.1
20260506000916 13 0.0 0.0 0.00 0.00 0.00 79 1010.5
20260505235916 13 0.0 0.0 0.00 0.00 0.00 78 1010.8
20260505234916 13 0.0 0.0 0.00 0.00 0.00 80 1011.3
20260505233918 14 0.0 0.0 0.00 0.00 0.00 75 1011.1
20260505232916 13 0.0 0.0 0.00 0.00 0.00 76 1011.5
20260505231916 13 0.0 0.0 0.00 0.00 0.00 80 1011.6
20260505230916 14 0.0 0.0 0.00 0.00 0.00 77 1011.3
20260505225916 13 0.0 0.0 0.00 0.00 0.00 78 1011.6
20260505224916 14 0.0 0.0 0.00 0.00 0.00 77 1011.5
20260505223916 14 0.0 0.0 0.00 0.00 0.00 77 1011.3
20260505222916 14 0.0 0.0 0.00 0.00 0.00 75 1011.3
20260505221916 13 0.0 0.0 0.00 0.00 0.00 79 1011.5
20260505220916 14 0.0 0.0 0.00 0.00 0.00 76 1011.6
20260505215916 15 0.0 0.0 0.00 0.00 0.00 72 1011.4
20260505214916 14 0.0 0.0 0.00 0.00 0.00 77 1011.8
20260505213916 14 0.0 0.0 0.00 0.00 0.00 76 1011.7
20260505212916 14 0.0 0.0 0.00 0.00 0.00 79 1011.5
20260505211916 14 0.0 0.0 0.00 0.00 0.00 78 1011.9
20260505210916 14 0.0 0.0 0.00 0.00 0.00 75 1011.9
20260505205916 14 0.0 0.0 0.00 0.00 0.00 77 1012.1